Location: Newark
(52.4787°S, 179.0532°W)
Time: 16:12:55
(UTC+00:00)

ISS - Pass Details

Date: 30 October 2019
Orbit: 412 x 421 km, 51.6° (Epoch: 23 November)

Event Time Altitude Azimuth Distance (km) Brightness Sun altitude
Rises 08:40:47 0° 259° (W) 2,383 1.1 -13.4°
Reaches altitude 10° 08:42:58 10° 266° (W) 1,517 -0.2 -13.6°
Maximum altitude 08:46:10 39° 336° (NNW) 657 -3.0 -14.0°
Enters shadow 08:47:26 27° 23° (NNE) 852 -2.8 -14.1°
